User: anonymous   Login
Location: Unspecified
(0.0000°N, 0.0000°E)
Time: 07:08:42
(UTC+00:00)
Language:

NOSS 7 (E) - Orbit

View from above orbital plane
View from above orbital plane
View from above satellite
View from above satellite

Ground track
Ground track

The orbit data is extracted from the following two-line orbital elements,

1 16624U 86014E   17163.93626940 0.00000930  00000-0  11973-3 0    04
2 16624  63.3130 203.7003 0882437  56.9995 303.0005 13.45477172    09
Epoch (UTC): 12 June 2017 22:28:13
Eccentricity: 0.0882437
inclination: 63.3130°
perigee height: 430 km
apogee height: 1748 km
right ascension of ascending node: 203.7003°
argument of perigee: 56.9995°
revolutions per day: 13.45477172
mean anomaly at epoch: 303.0005°
orbit number at epoch: 0

The dashed part of the orbit path shows where the satellite is in the earth's shadow,  

DLR